EDT,Max TemperatureF,Mean TemperatureF,Min TemperatureF,Max Dew PointF,MeanDew PointF,Min DewpointF,Max Humidity, Mean Humidity, Min Humidity, Max Sea Level PressureIn, Mean Sea Level PressureIn, Min Sea Level PressureIn, Max VisibilityMiles, Mean VisibilityMiles, Min VisibilityMiles, Max Wind SpeedMPH, Mean Wind SpeedMPH, Max Gust SpeedMPH,PrecipitationIn, CloudCover, Events, WindDirDegrees
2012-10-1,68,63,60,58,53,49,90,72,54,29.97,29.84,29.78,10,10,10,28,20,38,0.00,0,,243
2012-10-2,70,65,60,64,60,55,100,84,59,30.07,30.03,29.97,10,9,3,10,6,,0.35,3,Rain,208
2012-10-3,68,65,62,68,65,63,100,100,96,30.12,30.07,30.02,3,1,0,12,7,,0.10,8,Fog-Rain,99
2012-10-4,66,63,60,65,64,60,100,98,93,30.12,30.09,30.03,10,3,0,15,5,,0.01,8,Fog-Rain,337
2012-10-5,68,63,60,63,61,59,100,97,84,30.04,29.99,29.95,10,6,0,12,6,,0.00,5,Fog,244
2012-10-6,71,65,59,65,62,52,100,93,75,29.95,29.89,29.81,10,5,0,16,8,23,0.05,4,Fog-Rain,206
2012-10-7,60,55,50,51,46,41,96,77,57,30.06,30.02,29.92,10,9,4,20,10,28,0.17,5,Rain,350
2012-10-8,57,52,48,50,47,44,96,81,64,30.31,30.19,30.05,10,10,6,18,9,28,0.03,6,Rain,339
2012-10-9,57,55,53,56,53,48,100,94,82,30.28,30.17,30.09,10,7,2,21,12,30,0.35,8,Rain,58
2012-10-10,66,60,55,63,59,55,100,94,81,30.09,29.92,29.76,10,9,2,18,12,26,0.01,7,,100
2012-10-11,60,56,50,49,40,33,72,60,49,30.17,30.05,29.82,10,10,10,23,16,33,0.00,1,,274
2012-10-12,63,54,45,48,41,26,72,61,39,30.31,30.12,30.03,10,10,10,23,16,31,0.00,3,,291
2012-10-13,50,44,39,36,30,25,68,56,43,30.46,30.40,30.33,10,10,10,21,13,29,0.00,1,,306
2012-10-14,66,59,52,60,53,40,93,78,63,30.34,30.18,30.04,10,10,9,23,17,30,0.00,4,,217
2012-10-15,70,66,62,64,62,61,100,93,84,30.03,29.84,29.65,10,8,5,23,14,30,0.02,4,Rain,190
2012-10-16,64,56,50,63,50,37,100,77,51,29.84,29.66,29.55,10,10,6,18,10,24,0.10,4,Rain,281
2012-10-17,57,50,44,44,41,38,90,73,55,30.02,29.95,29.87,10,10,9,9,6,,0.00,0,,344
2012-10-18,61,52,42,55,48,39,97,83,67,30.12,30.09,30.04,10,10,10,12,4,,0.00,0,,118
2012-10-19,66,60,57,63,60,54,100,92,78,30.07,29.92,29.79,10,8,3,21,14,28,0.00,6,Rain,121
2012-10-20,66,63,60,65,63,55,100,98,83,29.81,29.73,29.68,10,4,0,21,12,25,0.13,6,Fog-Rain,177
2012-10-21,61,56,52,51,46,43,81,67,53,29.91,29.87,29.79,10,10,10,21,12,28,0.00,0,,268
2012-10-22,64,60,55,52,45,42,83,62,45,29.99,29.93,29.90,10,10,10,23,14,30,0.00,0,,286
2012-10-23,63,58,53,55,48,44,93,72,54,30.10,30.06,29.99,10,10,6,16,8,,0.02,2,Rain,305
2012-10-24,57,52,46,54,49,42,96,84,74,30.21,30.14,30.11,10,10,10,12,5,,0.05,7,Rain,32
2012-10-25,61,53,45,46,43,40,90,74,49,30.30,30.27,30.22,10,10,10,10,6,,0.00,0,,82
2012-10-26,61,50,39,50,45,39,100,83,47,30.27,30.21,30.14,10,9,2,8,3,,0.00,0,,138
2012-10-27,63,52,43,53,48,42,100,84,52,30.13,30.04,29.96,10,9,2,14,6,20,0.00,0,,52
2012-10-28,60,58,55,55,52,50,94,85,77,29.94,29.82,29.63,10,9,2,25,17,37,0.00,8,Rain,53
2012-10-29,64,60,55,63,59,55,100,95,83,29.61,29.29,29.05,6,4,2,41,27,60,2.00,8,Rain,74
2012-10-30,66,60,57,60,58,54,100,92,80,29.58,29.50,29.34,10,4,2,18,12,18,0.04,7,Rain,138
2012-10-31,60,56,53,58,52,47,100,89,75,29.60,29.55,29.50,10,8,2,16,11,,0.06,6,Rain,223